Voltar ao catálogo

STARLINK-37219

AtivoComunicaçõesSSO
NORAD 68843·PAYLOAD·🇺🇸 United States

Lançado Apr 26, 2026 de Vandenberg Space Force Base

Loading…

Próximas Passagens (próximas 24 horas)

TLE

AtualizadoSource: CelesTrak SupGP

Época: Sep 15, 2026, 03:43 UTC

1 68843C 26094E   26258.15534722 -.00066121  00000+0 -20529-2 0  2587
2 68843  97.2836 274.3961 0001440  89.6580  51.3695 15.33468042    19

Acompanhe STARLINK-37219 em tempo real com AllMySat

Download on the App Store